Time,TemperatureF,DewpointF,PressureIn,WindDirection,WindDirectionDegrees,WindSpeedMPH,WindSpeedGustMPH,Humidity,HourlyPrecipIn,Conditions,Clouds,dailyrainin,SoftwareType,DateUTC
2013-06-30 00:02:00,65.0,64.0,29.76,SSE,167,0.0,0.0,95,0.00,,,-99.99,,2013-06-30 04:02:00,
2013-06-30 00:12:00,65.0,64.0,29.76,SSE,167,0.0,0.0,95,0.00,,,-99.99,,2013-06-30 04:12:00,
2013-06-30 00:33:00,64.0,63.0,29.76,SSE,167,0.0,0.0,95,0.00,,,-99.99,,2013-06-30 04:33:00,
2013-06-30 00:43:00,64.0,63.0,29.76,SSE,167,0.0,0.0,95,0.00,,,-99.99,,2013-06-30 04:43:00,
2013-06-30 00:53:00,64.0,63.0,29.76,SSE,167,0.0,0.0,96,0.00,,,-99.99,,2013-06-30 04:53:00,
2013-06-30 01:02:00,64.0,63.0,29.76,SSE,167,0.0,0.0,96,0.00,,,-99.99,,2013-06-30 05:02:00,
2013-06-30 01:12:00,64.0,63.0,29.76,SSE,167,0.0,0.0,96,0.00,,,-99.99,,2013-06-30 05:12:00,
2013-06-30 01:22:00,63.0,62.0,29.75,SSE,167,0.0,0.0,96,0.00,,,-99.99,,2013-06-30 05:22:00,
2013-06-30 01:34:00,63.0,62.0,29.76,SSE,167,0.0,0.0,96,0.00,,,-99.99,,2013-06-30 05:34:00,
2013-06-30 01:43:00,63.0,62.0,29.78,SSE,167,0.0,0.0,96,0.00,,,-99.99,,2013-06-30 05:43:00,
2013-06-30 01:53:00,63.0,62.0,29.78,SSE,167,0.0,0.0,96,0.00,,,-99.99,,2013-06-30 05:53:00,
2013-06-30 02:02:00,63.0,62.0,29.78,SSE,167,0.0,0.0,97,0.00,,,-99.99,,2013-06-30 06:02:00,
2013-06-30 02:12:00,63.0,62.0,29.78,SSE,167,0.0,0.0,97,0.00,,,-99.99,,2013-06-30 06:12:00,
2013-06-30 02:23:00,63.0,62.0,29.78,SSE,167,0.0,0.0,97,0.00,,,-99.99,,2013-06-30 06:23:00,
2013-06-30 02:34:00,62.0,61.0,29.78,SSE,167,0.0,0.0,97,0.00,,,-99.99,,2013-06-30 06:34:00,
2013-06-30 02:43:00,62.0,61.0,29.78,SSE,167,0.0,0.0,97,0.00,,,-99.99,,2013-06-30 06:43:00,
2013-06-30 02:53:00,62.0,61.0,29.78,SSE,167,0.0,0.0,97,0.00,,,-99.99,,2013-06-30 06:53:00,
2013-06-30 03:02:00,62.0,61.0,29.76,SSE,167,0.0,0.0,97,0.00,,,-99.99,,2013-06-30 07:02:00,
2013-06-30 03:12:00,62.0,61.0,29.76,SSE,167,0.0,0.0,97,0.00,,,-99.99,,2013-06-30 07:12:00,
2013-06-30 03:22:00,62.0,61.0,29.75,SSE,167,0.0,0.0,98,0.00,,,-99.99,,2013-06-30 07:22:00,
2013-06-30 03:33:00,62.0,61.0,29.76,SSE,167,0.0,0.0,98,0.00,,,-99.99,,2013-06-30 07:33:00,
2013-06-30 03:44:00,62.0,61.0,29.76,SSE,167,0.0,0.0,98,0.00,,,-99.99,,2013-06-30 07:44:00,
2013-06-30 03:53:00,62.0,61.0,29.76,SSE,167,0.0,0.0,98,0.00,,,-99.99,,2013-06-30 07:53:00,
2013-06-30 04:02:00,62.0,61.0,29.75,SSE,167,0.0,0.0,98,0.00,,,-99.99,,2013-06-30 08:02:00,
2013-06-30 04:22:00,62.0,61.0,29.75,SSE,167,0.0,0.0,98,0.00,,,-99.99,,2013-06-30 08:22:00,
2013-06-30 04:34:00,62.0,61.0,29.75,SSE,167,0.0,0.0,98,0.00,,,-99.99,,2013-06-30 08:34:00,
2013-06-30 04:42:00,62.0,61.0,29.76,SSE,167,0.0,0.0,98,0.00,,,-99.99,,2013-06-30 08:42:00,
2013-06-30 04:53:00,62.0,61.0,29.76,SSE,167,0.0,0.0,98,0.00,,,-99.99,,2013-06-30 08:53:00,
2013-06-30 05:02:00,61.0,60.0,29.78,SSE,167,0.0,0.0,98,0.00,,,-99.99,,2013-06-30 09:02:00,
2013-06-30 05:12:00,61.0,60.0,29.78,SSE,167,0.0,0.0,98,0.00,,,-99.99,,2013-06-30 09:12:00,
2013-06-30 05:23:00,61.0,60.0,29.78,SSE,167,0.0,0.0,98,0.00,,,-99.99,,2013-06-30 09:23:00,
2013-06-30 05:34:00,61.0,60.0,29.78,SSE,167,0.0,0.0,97,0.00,,,-99.99,,2013-06-30 09:34:00,
2013-06-30 05:43:00,61.0,60.0,29.78,SSE,167,0.0,0.0,97,0.00,,,-99.99,,2013-06-30 09:43:00,
2013-06-30 05:53:00,60.0,59.0,29.78,SSE,167,0.0,0.0,97,0.00,,,-99.99,,2013-06-30 09:53:00,
2013-06-30 06:02:00,60.0,59.0,29.78,SSE,167,0.0,0.0,97,0.00,,,-99.99,,2013-06-30 10:02:00,
2013-06-30 06:22:00,60.0,59.0,29.79,SSE,167,0.0,0.0,97,0.00,,,-99.99,,2013-06-30 10:22:00,
2013-06-30 06:33:00,60.0,59.0,29.79,SSE,167,0.0,0.0,97,0.00,,,-99.99,,2013-06-30 10:33:00,
2013-06-30 06:42:00,60.0,59.0,29.79,SSE,167,0.0,0.0,98,0.00,,,-99.99,,2013-06-30 10:42:00,
2013-06-30 06:53:00,60.0,59.0,29.79,SSE,167,0.0,0.0,98,0.00,,,-99.99,,2013-06-30 10:53:00,
2013-06-30 07:02:00,60.0,59.0,29.79,SSE,167,0.0,0.0,98,0.00,,,-99.99,,2013-06-30 11:02:00,
2013-06-30 09:02:00,70.0,67.0,29.83,SSE,167,0.0,0.0,90,0.00,,,-99.99,,2013-06-30 13:02:00,
2013-06-30 09:12:00,70.0,67.0,29.83,SSE,167,0.0,0.0,90,0.00,,,-99.99,,2013-06-30 13:12:00,
2013-06-30 09:22:00,70.0,67.0,29.83,SSE,156,0.0,1.0,91,0.00,,,-99.99,,2013-06-30 13:22:00,
2013-06-30 09:34:00,69.0,67.0,29.83,SSE,156,0.0,0.0,92,0.00,,,-99.99,,2013-06-30 13:34:00,
2013-06-30 09:43:00,69.0,67.0,29.83,SSE,156,0.0,0.0,93,0.00,,,-99.99,,2013-06-30 13:43:00,
2013-06-30 09:53:00,69.0,67.0,29.83,SSE,156,0.0,0.0,93,0.00,,,-99.99,,2013-06-30 13:53:00,
2013-06-30 10:02:00,69.0,67.0,29.83,SSE,156,0.0,0.0,93,0.00,,,-99.99,,2013-06-30 14:02:00,
2013-06-30 10:11:00,71.0,69.0,29.83,SSW,203,0.0,0.0,93,0.00,,,-99.99,,2013-06-30 14:11:00,
2013-06-30 10:33:00,73.0,69.0,29.83,SSE,163,2.0,8.0,88,0.00,,,-99.99,,2013-06-30 14:33:00,
2013-06-30 10:44:00,73.0,69.0,29.83,SSE,163,2.0,8.0,88,0.00,,,-99.99,,2013-06-30 14:44:00,
2013-06-30 10:52:00,74.0,69.0,29.83,ESE,123,1.0,6.0,85,0.00,,,-99.99,,2013-06-30 14:52:00,
2013-06-30 11:02:00,75.0,69.0,29.83,ENE,62,0.0,5.0,82,0.00,,,-99.99,,2013-06-30 15:02:00,
2013-06-30 11:12:00,76.0,70.0,29.83,SE,138,1.0,6.0,81,0.00,,,-99.99,,2013-06-30 15:12:00,
2013-06-30 11:23:00,77.0,70.0,29.83,ESE,113,0.0,6.0,78,0.00,,,-99.99,,2013-06-30 15:23:00,
2013-06-30 11:34:00,77.0,69.0,29.83,SE,138,1.0,8.0,76,0.00,,,-99.99,,2013-06-30 15:34:00,
2013-06-30 11:44:00,77.0,69.0,29.83,SE,138,1.0,8.0,76,0.00,,,-99.99,,2013-06-30 15:44:00,
2013-06-30 11:53:00,78.0,68.0,29.83,South,170,4.0,8.0,72,0.00,,,-99.99,,2013-06-30 15:53:00,
2013-06-30 12:01:00,79.0,70.0,29.83,SE,145,1.0,5.0,74,0.00,,,-99.99,,2013-06-30 16:01:00,
2013-06-30 12:11:00,80.0,71.0,29.83,SSE,167,2.0,10.0,74,0.00,,,-99.99,,2013-06-30 16:11:00,
2013-06-30 12:21:00,80.0,71.0,29.83,SSE,167,2.0,10.0,74,0.00,,,-99.99,,2013-06-30 16:21:00,
2013-06-30 12:34:00,79.0,68.0,29.83,SE,124,1.0,6.0,70,0.00,,,-99.99,,2013-06-30 16:34:00,
2013-06-30 12:44:00,80.0,68.0,29.83,SSE,161,5.0,12.0,68,0.00,,,-99.99,,2013-06-30 16:44:00,
2013-06-30 12:53:00,79.0,68.0,29.83,SSE,154,4.0,10.0,68,0.00,,,-99.99,,2013-06-30 16:53:00,
2013-06-30 13:02:00,79.0,67.0,29.83,SSE,154,2.0,12.0,67,0.00,,,-99.99,,2013-06-30 17:02:00,
2013-06-30 13:23:00,79.0,69.0,29.83,South,188,0.0,3.0,72,0.00,,,-99.99,,2013-06-30 17:23:00,
2013-06-30 13:34:00,79.0,68.0,29.83,SW,225,0.0,6.0,70,0.00,,,-99.99,,2013-06-30 17:34:00,
2013-06-30 14:43:00,80.0,67.0,29.81,SE,131,3.0,7.0,65,0.00,,,-99.99,,2013-06-30 18:43:00,
2013-06-30 14:53:00,81.0,67.0,29.81,ESE,108,1.0,7.0,63,0.00,,,-99.99,,2013-06-30 18:53:00,
2013-06-30 15:01:00,82.0,67.0,29.81,ESE,115,2.0,7.0,61,0.00,,,-99.99,,2013-06-30 19:01:00,
2013-06-30 15:11:00,82.0,68.0,29.81,SSE,147,5.0,10.0,62,0.00,,,-99.99,,2013-06-30 19:11:00,
2013-06-30 15:22:00,82.0,68.0,29.81,East,86,0.0,6.0,62,0.00,,,-99.99,,2013-06-30 19:22:00,
2013-06-30 15:33:00,82.0,68.0,29.81,SE,125,5.0,11.0,62,0.00,,,-99.99,,2013-06-30 19:33:00,
2013-06-30 15:43:00,81.0,67.0,29.83,SE,137,5.0,10.0,63,0.00,,,-99.99,,2013-06-30 19:43:00,
2013-06-30 15:53:00,80.0,66.0,29.83,ENE,66,0.0,2.0,62,0.00,,,-99.99,,2013-06-30 19:53:00,
2013-06-30 16:02:00,80.0,67.0,29.83,ENE,76,0.0,8.0,64,0.00,,,-99.99,,2013-06-30 20:02:00,
2013-06-30 16:12:00,80.0,67.0,29.83,ESE,117,1.0,6.0,64,0.00,,,-99.99,,2013-06-30 20:12:00,
2013-06-30 16:22:00,80.0,67.0,29.83,ESE,117,4.0,8.0,65,0.00,,,-99.99,,2013-06-30 20:22:00,
2013-06-30 16:34:00,81.0,68.0,29.81,East,90,5.0,10.0,64,0.00,,,-99.99,,2013-06-30 20:34:00,
2013-06-30 16:42:00,80.0,68.0,29.81,ESE,106,2.0,8.0,66,0.00,,,-99.99,,2013-06-30 20:42:00,
2013-06-30 16:52:00,80.0,68.0,29.81,ESE,106,2.0,8.0,66,0.00,,,-99.99,,2013-06-30 20:52:00,
2013-06-30 17:01:00,80.0,68.0,29.83,East,99,3.0,10.0,68,0.00,,,-99.99,,2013-06-30 21:01:00,
2013-06-30 17:11:00,80.0,68.0,29.83,East,99,3.0,10.0,68,0.00,,,-99.99,,2013-06-30 21:11:00,
2013-06-30 17:22:00,80.0,69.0,29.83,SE,128,4.0,10.0,69,0.00,,,-99.99,,2013-06-30 21:22:00,
2013-06-30 17:34:00,79.0,69.0,29.84,East,83,5.0,14.0,72,0.00,,,-99.99,,2013-06-30 21:34:00,
2013-06-30 17:43:00,79.0,69.0,29.84,East,83,5.0,14.0,72,0.00,,,-99.99,,2013-06-30 21:43:00,
2013-06-30 17:53:00,77.0,69.0,29.83,NE,34,3.0,9.0,77,0.00,,,-99.99,,2013-06-30 21:53:00,
2013-06-30 18:01:00,77.0,69.0,29.83,NE,34,3.0,9.0,77,0.00,,,-99.99,,2013-06-30 22:01:00,
2013-06-30 18:11:00,77.0,69.0,29.83,NE,34,3.0,9.0,77,0.00,,,-99.99,,2013-06-30 22:11:00,
2013-06-30 18:22:00,76.0,69.0,29.85,NE,51,4.0,8.0,79,0.00,,,-99.99,,2013-06-30 22:22:00,
2013-06-30 18:34:00,76.0,69.0,29.85,NE,54,3.0,11.0,80,0.00,,,-99.99,,2013-06-30 22:34:00,
2013-06-30 18:43:00,76.0,69.0,29.85,NE,54,3.0,11.0,80,0.00,,,-99.99,,2013-06-30 22:43:00,
2013-06-30 18:53:00,75.0,68.0,29.85,NE,51,4.0,10.0,80,0.00,,,-99.99,,2013-06-30 22:53:00,
2013-06-30 19:02:00,75.0,68.0,29.85,NE,51,4.0,10.0,80,0.00,,,-99.99,,2013-06-30 23:02:00,
2013-06-30 19:11:00,75.0,68.0,29.85,NE,51,4.0,10.0,80,0.00,,,-99.99,,2013-06-30 23:11:00,
2013-06-30 19:22:00,74.0,68.0,29.86,ENE,66,5.0,11.0,83,0.00,,,-99.99,,2013-06-30 23:22:00,
2013-06-30 19:33:00,74.0,68.0,29.87,NE,54,5.0,11.0,82,0.00,,,-99.99,,2013-06-30 23:33:00,
2013-06-30 19:44:00,74.0,68.0,29.87,NE,48,3.0,7.0,83,0.00,,,-99.99,,2013-06-30 23:44:00,
2013-06-30 19:53:00,74.0,68.0,29.87,NE,42,5.0,10.0,83,0.00,,,-99.99,,2013-06-30 23:53:00,
2013-06-30 20:01:00,74.0,68.0,29.87,NE,42,5.0,10.0,83,0.00,,,-99.99,,2013-07-01 00:01:00,
2013-06-30 20:11:00,74.0,68.0,29.87,NE,42,5.0,10.0,83,0.00,,,-99.99,,2013-07-01 00:11:00,
2013-06-30 20:22:00,74.0,68.0,29.87,NE,40,3.0,9.0,83,0.00,,,-99.99,,2013-07-01 00:22:00,
2013-06-30 20:33:00,73.0,68.0,29.88,ENE,65,2.0,7.0,84,0.00,,,-99.99,,2013-07-01 00:33:00,
2013-06-30 20:42:00,73.0,68.0,29.88,NE,38,1.0,5.0,85,0.00,,,-99.99,,2013-07-01 00:42:00,
2013-06-30 20:52:00,73.0,68.0,29.87,NE,48,0.0,6.0,85,0.00,,,-99.99,,2013-07-01 00:52:00,
2013-06-30 21:01:00,73.0,68.0,29.87,NE,52,4.0,9.0,85,0.00,,,-99.99,,2013-07-01 01:01:00,
2013-06-30 21:11:00,73.0,68.0,29.88,NE,51,2.0,8.0,85,0.00,,,-99.99,,2013-07-01 01:11:00,
2013-06-30 21:22:00,73.0,68.0,29.87,NE,55,2.0,9.0,85,0.00,,,-99.99,,2013-07-01 01:22:00,
2013-06-30 21:33:00,73.0,69.0,29.88,NE,40,1.0,7.0,86,0.00,,,-99.99,,2013-07-01 01:33:00,
2013-06-30 21:42:00,72.0,68.0,29.89,NNE,29,0.0,5.0,87,0.00,,,-99.99,,2013-07-01 01:42:00,
2013-06-30 21:52:00,72.0,68.0,29.89,NNE,29,0.0,5.0,87,0.00,,,-99.99,,2013-07-01 01:52:00,
2013-06-30 22:02:00,72.0,68.0,29.91,NE,56,0.0,3.0,88,0.00,,,-99.99,,2013-07-01 02:02:00,
2013-06-30 22:12:00,72.0,69.0,29.91,ENE,74,1.0,6.0,89,0.00,,,-99.99,,2013-07-01 02:12:00,
2013-06-30 22:22:00,72.0,69.0,29.91,NE,52,1.0,5.0,89,0.00,,,-99.99,,2013-07-01 02:22:00,
2013-06-30 22:44:00,71.0,68.0,29.91,ENE,62,1.0,6.0,90,0.00,,,-99.99,,2013-07-01 02:44:00,
2013-06-30 22:53:00,71.0,68.0,29.91,ENE,62,1.0,6.0,90,0.00,,,-99.99,,2013-07-01 02:53:00,
2013-06-30 23:01:00,71.0,68.0,29.91,ENE,62,0.0,5.0,91,0.00,,,-99.99,,2013-07-01 03:01:00,
2013-06-30 23:11:00,71.0,68.0,29.91,ENE,62,0.0,5.0,91,0.00,,,-99.99,,2013-07-01 03:11:00,
2013-06-30 23:23:00,71.0,68.0,29.91,ENE,62,0.0,5.0,91,0.00,,,-99.99,,2013-07-01 03:23:00,
2013-06-30 23:33:00,71.0,68.0,29.91,NE,49,0.0,0.0,91,0.00,,,-99.99,,2013-07-01 03:33:00,
2013-06-30 23:43:00,71.0,68.0,29.91,NE,49,0.0,0.0,91,0.00,,,-99.99,,2013-07-01 03:43:00,
2013-06-30 23:52:00,71.0,69.0,29.91,East,86,0.0,5.0,93,0.00,,,-99.99,,2013-07-01 03:52:00,